Overview Statistics Trail Chart Weather Telemetry Raw packets
 

This is the latest recevied weather packets stored in our database for station/object N7BTW-13. If no packets are shown the sender has not sent any weather packets the latest 10 day(s).

<< 1 2 3 4 >>
Time Temp. Humidity Pressure Rain* Wind** Luminosity Snow
1788635410 21.67° C 61% - 0 mm - - -
1788634809 21.67° C 64% - 0 mm - - -
1788634209 21.11° C 68% - 0 mm - - -
1788633609 19.44° C 69% - 0 mm - - -
1788633007 20° C 68% - 0 mm - - -
1788632407 20° C 70% - 0 mm - - -
1788631807 19.44° C 73% - 0 mm - - -
1788631207 18.33° C 76% - 0 mm - - -
1788630608 18.89° C 75% - 0 mm - - -
1788630010 18.33° C 79% - 0 mm - - -
1788629410 17.78° C 81% - 0 mm - - -
1788628810 17.22° C 85% - 0 mm - - -
1788628209 17.22° C 86% - 0 mm - - -
1788627608 17.22° C 87% - 0 mm - - -
1788627009 16.67° C 88% - 0 mm - - -
1788626407 16.11° C 90% - 0 mm - - -
1788625806 16.67° C 88% - 0 mm - - -
1788625208 16.67° C 90% - 0 mm - - -
1788624609 15.56° C 94% - 0 mm - - -
1788624008 15° C 96% - 0 mm - - -
1788623406 14.44° C 97% - 0 mm - - -
1788622807 15° C 98% - 0 mm - - -
1788622208 14.44° C 99% - 0 mm - - -
1788621609 13.89° C 99% - 0 mm - - -
1788621010 12.78° C 99% - 0 mm - - -

* Rain latest hour (hover to see other rain measurements)
** Current wind speed in m/s (hover to see current wind gust speed)